Starlink 11322

operational
NORAD ID: 61542 Int'l Des: 2024-184 Owner: SPXS Country: US Constellation: starlink
LEOCIRCULAR

About Starlink 11322

Description loading...

Live Position

Loading 3D Globe...

Upcoming Passes

Altitude History

Altitude vs Time

uPlot chart will show altitude changes over time

Two-Line Element Set

1 61542U 24184L 26035.38938060 -.00000159 00000-0 35419-5 0 9993
2 61542 53.1591 40.6797 0001084 91.2670 268.8472 15.69713348 76248
Epoch: Feb 4, 2026 • Age: 22 hours

Current Status

Altitude 376.7 km
Velocity 7.68 km/s
Sub-Earth Point -47.70°S, 18.75°E
Launch Date Oct 15, 2024
Age 1.3 years
Type internet

Technical Details

Classification Payload
Mass 960.00 kg
Dry Mass 910.00 kg
Total Mass 960.00 kg
Length 0.30 m
Diameter 4.10 m
Span 29.00 m
Shape Box + pan
Manufacturer SPXS
Bus Type Starlink V2MD
Phase Status In Orbit
Owner/State SPXS/US

Large Constellations

Loading constellations...